This demonstration page uses our WeatherBlox Daily Observations layout. Learn more.

Left ArrowRight Arrow

36.17497, -115.13722

Hourly Observations for July 30, 2017

Temp ( °F °C ) Dew Point ( °F °C ) Humidity (%) Winds ( mph kmh ) Pressure ( in mb ) Visibility ( mi km ) Precip ( " mm )
12:39 am 00:39 Clear 91 32.8 52 11.1 26 26 SE 16 26 29.83 1010 10 16 N/A
12:53 am 00:53 Clear 90 32.2 53 11.7 28 28 ESE 6 9 29.95 1014 10 16 N/A
1:53 am 01:53 Mostly Clear 92 33.3 52 11.1 26 26 NNW 9 15 29.96 1015 10 16 N/A
2:53 am 02:53 Clear 89 31.7 54 12.2 30 30 NNW 13 20 29.95 1014 10 16 N/A
3:53 am 03:53 Clear 88 31.1 52 11.1 29 29 NW 6 9 29.95 1014 10 16 N/A
4:53 am 04:53 Clear 87 30.6 50 10 28 28 N 6 9 29.96 1014 10 16 N/A
5:53 am 05:53 Sunny 86 30 53 11.7 32 32 W 6 9 29.96 1015 10 16 N/A
6:53 am 06:53 Sunny 87 30.6 51 10.6 29 29 N N/A 29.97 1015 10 16 N/A
7:53 am 07:53 Sunny 89 31.7 52 11.1 28 28 N 6 9 29.97 1015 10 16 N/A
8:53 am 08:53 Sunny 92 33.3 53 11.7 27 27 NNE 3 6 29.99 1016 10 16 N/A
9:53 am 09:53 Sunny 94 34.4 52 11.1 24 24 N N/A 30.00 1016 10 16 N/A
10:53 am 10:53 Sunny 95 35 51 10.6 23 23 N N/A 29.99 1016 10 16 N/A
11:53 am 11:53 Sunny 99 37.2 49 9.4 18 18 VRB 3 6 29.97 1015 10 16 N/A
12:53 pm 12:53 Sunny 101 38.3 48 8.9 17 17 NE 6 9 29.95 1014 10 16 N/A
1:53 pm 13:53 Sunny 102 38.9 47 8.3 15 15 N N/A 29.93 1014 10 16 N/A
2:53 pm 14:53 Sunny 102 38.9 46 7.8 15 15 VRB 5 7 29.90 1013 10 16 N/A
3:53 pm 15:53 Sunny 102 38.9 45 7.2 14 14 WSW 6 9 29.88 1012 10 16 N/A
4:53 pm 16:53 Sunny 103 39.4 46 7.8 15 15 SSW 7 11 29.86 1011 10 16 N/A
5:48 pm 17:48 Sunny 100 38 43 6 14 14 N 17 28 29.71 1006 10 16 N/A
5:53 pm 17:53 Sunny 102 38.9 43 6.1 13 13 NNW 18 30 29.87 1012 10 16 N/A
6:53 pm 18:53 Sunny 103 39.4 40 4.4 11 11 NNW 8 13 29.86 1011 10 16 N/A
7:53 pm 19:53 Clear 101 38.3 40 4.4 12 12 WNW 9 15 29.87 1012 10 16 N/A
8:53 pm 20:53 Clear 99 37.2 43 6.1 15 15 W 6 9 29.88 1012 10 16 N/A
9:53 pm 21:53 Clear 95 35 44 6.7 17 17 E 6 9 29.91 1013 10 16 N/A
10:53 pm 22:53 Clear 95 35 43 6.1 17 17 N N/A 29.91 1013 10 16 N/A
11:53 pm 23:53 Clear 94 34.4 44 6.7 18 18 W 5 7 29.90 1013 10 16 N/A

Powered by AerisWeather